• en Belgique
  • Liste des pays
  • À 7 jours
  • Température de l'eau
  • Carte satellitaire
  • Carte météo
  • Widgets météo
  • user-avatar
    Se connecter

    Météo par heure à Krasnoyarka

    Ce jour, 21 Octobre, Dimanche

    Heure Température Précipitation Vent Pression Humidité
    00:00 +1°C° 0 mm 2 m/s 744 mmHg 81%
    01:00 +1°C° 0 mm 2 m/s 744 mmHg 81%
    02:00 -1°C° 0 mm 2 m/s 745 mmHg 80%
    03:00 -1°C° 0 mm 3 m/s 745 mmHg 79%
    04:00 -1°C° 0 mm 3 m/s 746 mmHg 78%
    05:00 -1°C° 0 mm 3 m/s 746 mmHg 78%
    06:00 -2°C° 0 mm 3 m/s 747 mmHg 77%
    07:00 -2°C° 0 mm 3 m/s 747 mmHg 76%
    08:00 -1°C° 0 mm 3 m/s 748 mmHg 72%
    09:00 -2°C° 0 mm 4 m/s 748 mmHg 68%
    10:00 -1°C° 0 mm 4 m/s 749 mmHg 63%
    11:00 -1°C° 0 mm 4 m/s 749 mmHg 61%
    12:00 -1°C° 0 mm 4 m/s 750 mmHg 59%
    13:00 0°C° 0 mm 4 m/s 750 mmHg 57%
    14:00 0°C° 0 mm 4 m/s 751 mmHg 58%
    15:00 0°C° 0 mm 3 m/s 751 mmHg 60%
    16:00 0°C° 0 mm 3 m/s 751 mmHg 61%
    17:00 -1°C° 0 mm 3 m/s 752 mmHg 64%
    18:00 -1°C° 0 mm 2 m/s 752 mmHg 67%
    19:00 -2°C° 0 mm 2 m/s 753 mmHg 70%
    20:00 -2°C° 0 mm 2 m/s 753 mmHg 72%
    21:00 -2°C° 0 mm 2 m/s 753 mmHg 74%
    22:00 -3°C° 0 mm 2 m/s 753 mmHg 75%
    23:00 -3°C° 0 mm 2 m/s 754 mmHg 76%

    Demain, 22 Octobre, Lundi

    Heure Température Précipitation Vent Pression Humidité
    00:00 -3°C° 0 mm 2 m/s 754 mmHg 77%
    01:00 -4°C° 0 mm 2 m/s 754 mmHg 79%
    02:00 -4°C° 0 mm 2 m/s 755 mmHg 78%
    03:00 -4°C° 0 mm 2 m/s 755 mmHg 78%
    04:00 -2°C° 0 mm 1 m/s 755 mmHg 78%
    05:00 -2°C° 0 mm 1 m/s 755 mmHg 78%
    06:00 -2°C° 0 mm 1 m/s 755 mmHg 78%
    07:00 -2°C° 0 mm 1 m/s 755 mmHg 78%
    08:00 -3°C° 0 mm 2 m/s 755 mmHg 72%
    09:00 -2°C° 0 mm 2 m/s 755 mmHg 67%
    10:00 -1°C° 0 mm 2 m/s 755 mmHg 61%
    11:00 +2°C° 0 mm 2 m/s 754 mmHg 60%
    12:00 +2°C° 0 mm 3 m/s 754 mmHg 59%
    13:00 +3°C° 0 mm 3 m/s 753 mmHg 58%
    14:00 +2°C° 0 mm 3 m/s 753 mmHg 63%
    15:00 +2°C° 0 mm 3 m/s 752 mmHg 68%
    16:00 +2°C° 0 mm 3 m/s 752 mmHg 73%
    17:00 +1°C° 0 mm 3 m/s 751 mmHg 73%
    18:00 0°C° 0 mm 4 m/s 751 mmHg 73%
    19:00 0°C° 0 mm 4 m/s 750 mmHg 73%
    20:00 0°C° 0.1 mm 4 m/s 750 mmHg 73%
    21:00 0°C° 0.1 mm 4 m/s 749 mmHg 74%
    22:00 0°C° 0.1 mm 4 m/s 748 mmHg 74%
    23:00 0°C° 0.5 mm 5 m/s 748 mmHg 75%

    Après-demain, 23 Octobre, Mardi

    Heure Température Précipitation Vent Pression Humidité
    00:00 0°C° 0.5 mm 5 m/s 747 mmHg 77%
    01:00 +1°C° 0.5 mm 5 m/s 746 mmHg 78%
    02:00 +1°C° 0.2 mm 4 m/s 746 mmHg 78%
    03:00 +1°C° 0.2 mm 4 m/s 745 mmHg 79%
    04:00 +1°C° 0.2 mm 4 m/s 745 mmHg 80%
    05:00 +1°C° 0 mm 4 m/s 745 mmHg 80%
    06:00 +1°C° 0 mm 4 m/s 744 mmHg 80%
    07:00 +1°C° 0 mm 4 m/s 744 mmHg 80%
    08:00 +3°C° 0 mm 4 m/s 744 mmHg 78%
    09:00 +2°C° 0 mm 5 m/s 744 mmHg 77%
    10:00 +3°C° 0 mm 5 m/s 744 mmHg 75%
    11:00 +3°C° 0 mm 5 m/s 744 mmHg 73%
    12:00 +5°C° 0 mm 5 m/s 744 mmHg 70%
    13:00 +5°C° 0 mm 5 m/s 743 mmHg 68%
    14:00 +5°C° 0 mm 5 m/s 744 mmHg 71%
    15:00 +4°C° 0 mm 4 m/s 744 mmHg 73%
    16:00 +3°C° 0 mm 4 m/s 744 mmHg 76%
    17:00 +3°C° 0 mm 3 m/s 744 mmHg 79%
    18:00 +3°C° 0 mm 3 m/s 744 mmHg 83%
    19:00 +2°C° 0 mm 3 m/s 744 mmHg 86%
    20:00 +3°C° 0 mm 3 m/s 743 mmHg 86%
    21:00 +4°C° 0 mm 3 m/s 743 mmHg 86%
    22:00 +5°C° 0 mm 4 m/s 743 mmHg 87%
    23:00 +5°C° 0.1 mm 4 m/s 743 mmHg 85%

    24 Octobre, Mercredi

    Heure Température Précipitation Vent Pression Humidité
    00:00 +5°C° 0.1 mm 4 m/s 743 mmHg 84%
    01:00 +5°C° 0.1 mm 4 m/s 742 mmHg 82%
    02:00 +5°C° 0.3 mm 4 m/s 742 mmHg 82%
    03:00 +4°C° 0.3 mm 4 m/s 742 mmHg 82%
    04:00 +4°C° 0.3 mm 4 m/s 742 mmHg 82%
    05:00 +4°C° 0.1 mm 4 m/s 742 mmHg 82%
    06:00 +4°C° 0.1 mm 3 m/s 742 mmHg 83%
    07:00 +4°C° 0.1 mm 3 m/s 742 mmHg 83%
    08:00 +4°C° 0 mm 3 m/s 742 mmHg 82%
    09:00 +5°C° 0 mm 3 m/s 742 mmHg 80%
    10:00 +5°C° 0 mm 3 m/s 742 mmHg 79%
    11:00 +7°C° 0.3 mm 3 m/s 742 mmHg 81%
    12:00 +7°C° 0.3 mm 3 m/s 742 mmHg 84%
    13:00 +7°C° 0.3 mm 3 m/s 742 mmHg 86%
    14:00 +7°C° 0.3 mm 3 m/s 742 mmHg 87%
    15:00 +7°C° 0.3 mm 3 m/s 742 mmHg 87%
    16:00 +7°C° 0.3 mm 3 m/s 742 mmHg 88%
    17:00 +7°C° 0 mm 3 m/s 742 mmHg 88%
    18:00 +7°C° 0 mm 3 m/s 742 mmHg 89%
    19:00 +7°C° 0 mm 3 m/s 742 mmHg 89%
    20:00 +7°C° 0 mm 3 m/s 742 mmHg 89%
    21:00 +7°C° 0 mm 3 m/s 742 mmHg 90%
    22:00 +7°C° 0 mm 3 m/s 743 mmHg 90%
    23:00 +5°C° 0 mm 3 m/s 743 mmHg 91%

    25 Octobre, Jeudi

    Heure Température Précipitation Vent Pression Humidité
    00:00 +5°C° 0 mm 3 m/s 743 mmHg 91%
    01:00 +5°C° 0 mm 3 m/s 743 mmHg 92%
    02:00 +5°C° 0 mm 3 m/s 743 mmHg 92%
    03:00 +5°C° 0 mm 3 m/s 744 mmHg 91%
    04:00 +5°C° 0 mm 3 m/s 744 mmHg 91%
    05:00 +5°C° 0 mm 3 m/s 744 mmHg 90%
    06:00 +5°C° 0 mm 3 m/s 744 mmHg 90%
    07:00 +5°C° 0 mm 3 m/s 745 mmHg 90%
    08:00 +7°C° 0 mm 3 m/s 745 mmHg 86%
    09:00 +7°C° 0 mm 3 m/s 745 mmHg 82%
    10:00 +7°C° 0 mm 4 m/s 746 mmHg 78%
    11:00 +9°C° 0 mm 3 m/s 746 mmHg 76%
    12:00 +9°C° 0 mm 3 m/s 746 mmHg 74%
    13:00 +10°C° 0 mm 3 m/s 746 mmHg 72%
    14:00 +9°C° 0 mm 2 m/s 746 mmHg 77%
    15:00 +8°C° 0 mm 2 m/s 747 mmHg 81%
    16:00 +8°C° 0 mm 2 m/s 747 mmHg 86%
    17:00 +7°C° 0.1 mm 2 m/s 747 mmHg 87%
    18:00 +7°C° 0.1 mm 2 m/s 747 mmHg 89%
    19:00 +7°C° 0.1 mm 2 m/s 747 mmHg 90%
    20:00 +7°C° 0.3 mm 2 m/s 746 mmHg 91%
    21:00 +7°C° 0.3 mm 2 m/s 746 mmHg 92%
    22:00 +7°C° 0.3 mm 3 m/s 746 mmHg 94%
    23:00 +7°C° 0 mm 3 m/s 746 mmHg 93%

    26 Octobre, Vendredi

    Heure Température Précipitation Vent Pression Humidité
    00:00 +7°C° 0 mm 3 m/s 745 mmHg 93%
    01:00 +5°C° 0 mm 3 m/s 745 mmHg 93%
    02:00 +5°C° 0 mm 3 m/s 745 mmHg 92%
    03:00 +4°C° 0 mm 3 m/s 745 mmHg 91%
    04:00 +4°C° 0 mm 3 m/s 745 mmHg 89%
    05:00 +4°C° 0 mm 3 m/s 744 mmHg 87%
    06:00 +4°C° 0 mm 3 m/s 744 mmHg 84%
    07:00 +4°C° 0 mm 3 m/s 743 mmHg 81%
    08:00 +5°C° 0 mm 3 m/s 743 mmHg 77%
    09:00 +6°C° 0 mm 4 m/s 743 mmHg 72%
    10:00 +7°C° 0 mm 4 m/s 742 mmHg 67%
    11:00 +8°C° 0 mm 4 m/s 742 mmHg 63%
    12:00 +10°C° 0 mm 4 m/s 741 mmHg 60%
    13:00 +10°C° 0 mm 5 m/s 741 mmHg 56%
    14:00 +10°C° 0 mm 5 m/s 740 mmHg 57%
    15:00 +10°C° 0 mm 5 m/s 740 mmHg 58%
    16:00 +9°C° 0 mm 5 m/s 740 mmHg 60%
    17:00 +9°C° 0 mm 5 m/s 740 mmHg 61%
    18:00 +9°C° 0 mm 5 m/s 739 mmHg 63%
    19:00 +9°C° 0 mm 5 m/s 739 mmHg 64%
    20:00 +8°C° 0.3 mm 5 m/s 739 mmHg 71%
    21:00 +8°C° 0.3 mm 4 m/s 739 mmHg 77%
    22:00 +8°C° 0.3 mm 4 m/s 739 mmHg 83%
    23:00 +7°C° 0.8 mm 4 m/s 739 mmHg 85%
    Voir plus